This is the latest recevied weather packets stored in our database for station/object KB1QVF. If no packets are shown the sender has not sent any weather packets the latest 10 day(s).
| Time | Temp. | Humidity | Pressure | Rain* | Wind** | Luminosity | Snow |
|---|---|---|---|---|---|---|---|
| 1778095333 | 14.44° C | 91% | 1010.3 hPa | 3.05 mm | - | 76 W/m² | - |
| 1778095030 | 14.44° C | 90% | 1010.2 hPa | 1.78 mm | - | 74 W/m² | - |
| 1778094725 | 15° C | 89% | 1010.4 hPa | 1.27 mm | - | 83 W/m² | - |
| 1778094423 | 15° C | 89% | 1010.2 hPa | 1.27 mm | - | 107 W/m² | - |
| 1778094119 | 15° C | 88% | 1010.2 hPa | 0 mm | - | 98 W/m² | - |
| 1778093816 | 15° C | 87% | 1010.3 hPa | 1.78 mm | - | 113 W/m² | - |
| 1778093512 | 15° C | 87% | 1010.4 hPa | 1.78 mm | - | 165 W/m² | - |
| 1778093210 | 15° C | 85% | 1010.7 hPa | 0 mm | - | 131 W/m² | - |
| 1778092907 | 15.56° C | 83% | 1010.7 hPa | 0 mm | - | 98 W/m² | - |
| 1778092604 | 15.56° C | 81% | 1010.7 hPa | 0 mm | - | 148 W/m² | - |
| 1778092299 | 16.11° C | 79% | 1010.8 hPa | 0 mm | - | 120 W/m² | - |
| 1778091997 | 16.67° C | 76% | 1010.7 hPa | 0 mm | - | 127 W/m² | - |
| 1778091694 | 16.67° C | 76% | 1010.8 hPa | 0 mm | - | 122 W/m² | - |
| 1778091392 | 16.67° C | 74% | 1010.8 hPa | 0 mm | - | 131 W/m² | - |
| 1778091089 | 17.22° C | 74% | 1011 hPa | 0 mm | - | 113 W/m² | - |
| 1778090786 | 17.22° C | 73% | 1011 hPa | 0 mm | - | 122 W/m² | - |
| 1778090482 | 17.22° C | 73% | 1011.2 hPa | 0 mm | - | 137 W/m² | - |
| 1778090178 | 17.22° C | 73% | 1010.9 hPa | 0 mm | - | 129 W/m² | - |
| 1778089874 | 17.78° C | 72% | 1011 hPa | 0 mm | - | 129 W/m² | - |
| 1778089574 | 17.78° C | 71% | 1011.2 hPa | 0 mm | - | 176 W/m² | - |
| 1778089269 | 17.78° C | 71% | 1011.1 hPa | 0 mm | - | 181 W/m² | - |
| 1778088968 | 17.78° C | 70% | 1011.1 hPa | 0 mm | - | 196 W/m² | - |
| 1778088664 | 18.33° C | 69% | 1011 hPa | 0 mm | - | 216 W/m² | - |
| 1778088361 | 18.33° C | 69% | 1011.4 hPa | 0 mm | - | 246 W/m² | - |
| 1778088057 | 18.89° C | 67% | 1011.6 hPa | 0 mm | - | 318 W/m² | - |
* Rain latest hour (hover to see other rain measurements)
** Current wind speed in m/s (hover to see current wind gust speed)